Location: Foligno
(42.9600°N, 12.7050°E)
Time: 16:26:50
(UTC+02:00)

ISS - Pass Details

Date: 12 October 2018
Orbit: 403 x 408 km, 51.6° (Epoch: 16 October)

Event Time Altitude Azimuth Distance (km) Brightness Sun altitude
Rises 19:11:47 0° 299° (WNW) 2,337 1.1 -8.1°
Reaches altitude 10° 19:13:55 10° 294° (WNW) 1,472 0.2 -8.5°
Maximum altitude 19:17:06 48° 219° (SW) 541 -2.9 -9.1°
Drops below altitude 10° 19:20:17 10° 144° (SE) 1,462 -1.3 -9.7°
Enters shadow 19:21:27 - 140° (SE) 1,932 -0.8 -9.9°
